EHI
0 0 0 0 0 0 0 0 0 0 0 0 0 0 0 0 0 0 0 0 0 0 0 0 0 0 0 0 0 0 0 0 0 0 0 0 0 0 0 0 0 0 0 0
0 0 0 0 0 0 0 0 0 0 0 0 0 0 0 0 0 0 0 0 0 0 0 0 0 0 0 0 0 0 0 0 0 0 0 0 0 0 0 0 0 0 0 0
0 0 0 0 0 0 0 0 0 0 0 0 0 0 0 0 0 0 0 0 0 0 0 0 0 0 0 0 0 0 0 0 0 0 0 0 0 0 0 0 0 0 0 0
0 0 0 0 0 0 0 0 0 0 0 0 0 0 0 0 0 0 0 0 0 0 0 0 0 0 0 0 0 0 0 0 0 0 0 0 0 0 0 0 0 0 0 0
0 0 0 0 0 0 0 0 0 0 0 0 0 0 0 0 0 0 0 0 0 0 0 0 0 0 0 0 0 0 0 0 0 0 0 0 0 0 0 0 0 0 0 0
0 0 0 0 0 0 0 0 0 0 0 0 0 0 0 0 0 0 0 0 0 0 0 0 0 0 0 0 0 0 0 0 0 0 0 0 0 0 0 0 0 0 0 0
0 0 0 0 0 0 0 0 0 0 0 0 0 0 0 0 0 0 0 0 0 0 0 0 0 0 0 0 0 0 0 0 0 0 0 0 0 0 0 0 0 0 0 0
0 0 0 0 0 0 0 0 0 0 0 0 0 0 0 0 0 0 0 0 0 0 0 0 0 0 0 0 0 0 0 0 0 0 0 0 0 0 0 0 0 0 0 0
0 0 0 0 0 0 0 0 0 0 0 0 0 0 0 0 0 0 0 0 0 0 0 0 0 0 0 0 0 0 0 0 0 0 0 0 0 0 0 0 0 0 0 0
0 0 0 0 0 0 0 0 0 0 0 0 0 0 0 0 0 0 0 0 0 0 0 0 0 0 0 0 0 0 0 0 0 0 0 0 0 0 0 0 0 0 0 0
0 0 0 0 0 0 0 0 0 0 0 0 0 0 0 0 0 0 0 0 0 0 0 0 0 0 0 0 0 0 0 0 0 0 1 0 0 0 0 0 0 0 0 0
0 0 0 0 0 0 0 0 0 0 0 0 0 0 0 0 0 0 0 0 0 0 0 0 0 0 0 0 0 0 0 0 0 0 0 0 0 0 0 0 0 0 0 0
0 0 0 0 0 0 0 0 0 0 0 0 0 0 0 0 0 0 0 0 0 0 0 0 0 0 0 0 0 0 0 0 0 0 0 0 0 0 0 0 0 0 0 0
0 0 0 0 0 0 0 0 0 0 0 0 0 0 0 0 0 0 0 0 0 0 0 0 0 0 0 0 0 0 0 0 0 0 0 0 0 0 0 0 0 0 0 0
0 0 0 0 0 0 0 0 0 0 0 0 0 0 0 0 0 0 0 0 0 0 0 0 0 0 0 0 0 0 0 0 0 0 0 0 0 0 0 0 0 0 0 0
0 0 0 0 0 0 0 0 0 0 0 0 0 0 0 0 0 0 0 0 0 0 0 0 0 0 0 0 0 0 0 0 0 0 0 0 0 0 0 0 0 0 0 0
0 0 0 0 0 0 0 0 0 0 0 0 0 0 0 0 0 0 0 0 0 0 0 0 0 0 0 0 0 0 0 0 0 0 0 0 0 0 0 0 0 0 0 0
0 0 0 0 0 0 0 0 0 0 0 0 0 0 0 0 0 0 0 0 0 0 0 0 0 0 0 0 0 0 0 0 0 0 0 0 0 0 0 0 0 0 0 0
0 0 0 0 0 0 0 0 0 0 0 0 0 0 0 0 0 0 0 0 0 0 0 0 0 0 0 0 0 0 0 0 0 0 0 0 0 0 0 0 0 0 0 0
0 0 0 0 0 0 0 0 0 0 0 0 0 0 0 0 0 0 0 0 0 0 0 0 0 0 0 0 0 0 0 0 0 0 0 0 0 0 0 0 0 0 0 0
0 0 0 0 0 0 0 0 0 0 0 0 0 0 0 0 0 0 0 0 0 0 0 0 0 0 0 0 0 0 0 0 0 0 0 0 0 0 0 0 0 0 0 0
0 0 0 0 0 0 0 0 0 0 0 0 0 0 0 0 0 0 0 0 0 0 0 0 0 0 0 0 0 0 0 0 0 0 0 0 0 0 0 0 0 0 0 0
0 0 0 0 0 0 0 0 0 0 0 0 0 0 0 0 0 0 0 0 0 0 0 0 0 0 0 0 0 0 0 0 0 0 0 0 0 0 0 0 0 0 0 0
0 0 0 0 0 0 0 0 0 0 0 0 0 0 0 0 0 0 0 0 0 0 0 0 0 0 0 0 0 0 0 0 0 0 0 0 0 0 0 0 0 0 0 0
0 0 0 0 0 0 0 0 0 0 0 0 0 0 0 0 0 0 0 0 0 0 0 0 0 0 0 0 0 0 0 0 0 0 0 0 0 0 0 0 0 0 0 0
0 0 0 0 0 0 0 0 0 0 0 0 0 0 0 0 0 0 0 0 0 0 0 0 0 0 0 0 0 0 0 0 0 0 0 0 0 0 0 0 0 0 0 0
0 0 0 0 0 0 0 0 0 0 0 0 0 0 0 0 0 0 0 0 0 0 0 0 0 0 0 0 0 0 0 0 0 0 0 0 0 0 0 0 0 0 0 0
Wind_Speed
5 3 2 4 5 6 6 5 4 3 3 4 4 4 5 5 6 6 7 7 7 6 5 4 4 5 5 5 6 7 7 8 8 6 5 5 5 5 5 6 6 4 3 2
3 4 1 1 1 2 3 3 3 2 3 3 2 3 5 6 7 7 7 8 7 7 6 5 4 4 4 5 6 6 7 8 8 7 8 7 6 6 6 6 6 6 5 4
1 5 4 2 2 1 1 1 1 2 3 2 3 5 6 7 8 8 8 8 8 8 7 7 6 5 4 5 6 7 7 6 7 8 7 7 8 7 7 6 7 7 6 6
4 3 2 5 4 2 1 1 1 1 2 2 3 2 4 6 7 8 9 8 8 7 7 7 7 6 5 5 6 7 7 7 7 7 8 8 8 8 7 6 5 5 5 5
4 4 2 5 4 3 2 2 2 1 1 2 3 2 5 8 7 8 7 6 6 6 6 6 6 6 6 6 7 7 7 7 7 7 7 7 8 7 6 5 5 4 4 5
4 5 2 6 7 3 2 1 5 3 2 3 5 3 4 7 7 7 6 5 6 6 6 6 6 6 6 6 6 6 6 6 6 5 5 6 7 6 5 5 5 4 5 5
4 4 3 8 7 3 2 5 5 4 3 4 7 5 5 6 6 5 5 5 6 6 5 5 6 5 6 6 5 5 4 5 5 5 5 5 5 5 5 5 5 5 5 4
2 3 3 9 5 1 5 6 5 4 5 5 4 4 5 5 4 5 5 5 6 5 5 4 5 5 4 4 4 3 3 3 4 4 5 6 5 5 6 6 5 5 5 5
4 3 7 5 3 5 4 4 4 4 4 3 3 4 4 5 5 5 5 5 5 6 5 4 4 4 4 3 3 2 2 3 3 4 5 5 6 6 6 6 5 4 4 4
2 3 6 5 3 4 3 4 5 4 3 2 3 4 4 5 5 5 5 5 5 6 6 5 4 3 3 4 3 2 2 2 3 4 5 6 5 5 5 6 6 5 5 5
4 3 5 5 5 5 5 4 4 3 2 2 3 4 4 5 5 4 4 4 4 5 5 5 4 3 3 3 5 3 3 3 4 4 4 4 5 5 5 5 4 4 4 4
0 4 2 5 7 7 7 5 4 3 2 2 1 2 3 4 4 4 4 4 5 5 6 6 5 4 3 3 4 4 4 4 3 2 3 3 4 4 6 5 7 8 8 6
4 5 4 6 7 8 7 6 4 2 1 1 1 2 3 4 4 4 5 5 6 6 5 5 5 5 4 3 4 4 4 3 3 3 2 2 2 2 2 2 4 7 8 9
6 4 5 5 7 7 7 7 5 4 3 2 0 2 2 3 4 4 5 5 5 6 5 5 5 5 5 4 3 3 3 2 2 1 2 2 2 2 2 2 1 2 3 6
6 5 4 6 7 7 7 6 5 4 3 2 1 1 2 3 4 4 4 4 5 5 5 5 5 5 5 5 4 4 3 3 2 2 2 2 2 2 2 2 2 2 2 2
8 6 6 7 8 8 7 7 5 4 3 2 1 1 2 3 3 4 3 4 5 5 5 4 4 5 5 4 3 2 3 3 3 2 1 1 2 2 2 2 3 3 3 3
9 9 8 8 9 8 8 6 5 4 4 3 2 0 2 3 3 3 3 4 4 4 3 3 4 5 5 4 3 1 2 2 1 2 1 2 2 2 2 2 3 4 3 3
9 9 9 9 8 8 7 7 5 3 2 2 2 1 3 3 3 3 4 4 4 4 3 5 5 6 5 3 3 3 1 3 3 1 2 2 1 1 2 3 3 4 2 2
8 9 9 8 8 8 7 6 5 5 4 3 3 3 3 3 3 3 3 4 4 4 4 6 8 7 3 2 3 3 3 1 2 2 3 3 1 1 2 2 3 3 3 2
8 8 8 8 7 6 6 6 5 5 4 4 3 3 3 3 2 2 2 3 2 2 4 6 7 6 3 3 2 4 4 2 1 3 3 3 2 2 2 2 2 3 3 3
7 8 8 7 7 6 5 6 5 5 4 4 3 3 3 3 2 2 2 2 1 3 4 7 5 3 3 3 3 4 4 3 1 2 2 2 2 2 2 2 2 2 3 3
6 6 7 7 7 6 6 6 6 6 5 4 4 4 3 3 3 3 2 2 1 3 2 4 2 4 4 5 3 4 3 3 2 1 2 2 2 2 3 3 3 2 3 3
5 7 7 8 8 8 8 7 7 6 5 5 4 4 4 2 1 1 3 1 2 2 2 3 2 4 6 5 4 4 4 4 3 2 2 2 2 2 3 3 3 3 3 4
3 5 6 7 8 8 8 7 6 5 5 5 4 4 4 3 3 3 2 2 3 1 3 4 5 7 6 4 4 4 4 3 3 2 2 2 2 2 3 3 3 3 3 4
3 3 4 5 5 5 5 6 6 6 5 4 5 5 4 3 3 2 2 2 1 3 4 5 7 7 5 4 4 3 3 3 3 2 2 2 2 2 2 3 3 3 3 4
4 3 2 3 3 2 3 3 4 4 5 4 4 4 3 3 4 3 3 4 5 4 4 4 4 4 3 3 3 3 2 2 3 3 3 3 4 4 3 3 4 3 4 4
5 3 1 2 2 2 3 3 3 4 4 4 4 4 4 3 3 4 4 3 3 3 3 3 3 3 2 3 3 4 3 3 3 4 4 4 4 3 4 4 3 3 3 4
Wind_Direction
82 83 29 25 22 24 37 41 52 70 58 35 7 2 4 11 12 17 20 15 11 7 4 10 14 7 6 8 15 23 25 19 11 11 12 7 0 354 353 354 350 349 17 45
191 166 253 322 23 34 44 48 76 88 77 46 13 13 12 20 20 21 19 16 11 8 359 3 16 5 20 20 24 32 31 22 10 16 19 14 11 10 2 359 2 5 13 27
286 144 245 266 129 146 79 57 9 31 63 15 9 19 20 18 17 21 18 16 9 1 359 1 12 17 39 41 34 34 33 30 20 19 16 14 15 13 5 7 12 13 19 29
283 243 285 95 102 108 291 252 177 59 69 18 348 23 47 34 20 21 16 12 3 350 354 2 10 16 32 48 45 37 27 26 26 26 20 17 17 12 7 9 12 15 17 24
310 324 118 137 152 168 251 280 147 139 64 12 306 146 68 43 33 25 16 6 350 338 349 6 4 10 27 37 44 37 27 25 26 28 23 19 16 9 7 8 10 14 24 29
308 312 2 109 117 121 244 216 104 100 60 5 357 67 42 29 32 27 17 3 348 342 356 2 358 11 31 34 39 36 29 28 26 31 34 25 15 7 5 7 8 18 33 34
279 286 84 112 119 162 267 91 87 80 61 36 40 42 24 23 29 27 20 11 357 347 351 349 355 13 34 32 36 36 33 34 29 25 39 42 21 8 10 11 15 23 27 36
290 294 102 134 153 190 82 101 95 83 66 55 39 33 24 15 30 33 21 17 359 338 337 345 1 9 41 34 25 34 37 42 45 46 34 32 28 18 17 15 19 25 22 23
356 54 110 151 119 82 83 103 102 88 76 59 26 27 21 7 27 32 18 13 353 335 333 354 18 11 28 30 7 19 39 56 52 64 61 39 28 26 23 19 21 21 21 19
282 160 153 165 147 125 118 103 98 91 83 47 20 15 13 4 23 22 14 8 351 342 346 356 7 12 40 13 341 354 39 63 73 62 62 55 37 31 34 22 15 12 15 14
252 149 135 171 180 163 146 139 131 122 111 56 16 14 7 0 16 6 360 4 355 348 342 345 359 13 51 16 338 353 33 50 76 85 86 80 69 41 36 50 31 11 3 11
334 115 160 156 168 168 160 165 161 159 146 115 44 16 359 357 359 352 355 9 2 353 343 347 359 8 47 26 342 9 38 33 42 79 89 105 115 94 54 54 48 45 39 38
76 107 90 115 151 163 163 163 162 169 137 80 30 20 354 344 343 351 1 13 359 343 337 349 356 5 23 19 5 14 54 37 36 41 62 77 107 127 127 85 55 47 43 44
109 131 136 145 151 161 162 161 173 181 167 167 25 353 341 334 342 360 3 2 346 333 343 354 359 14 11 2 4 20 70 66 32 53 50 58 58 71 96 114 112 91 54 45
167 185 158 146 148 161 159 165 181 190 184 174 147 289 326 340 349 349 343 347 340 338 352 353 5 21 6 353 357 18 41 47 32 39 55 69 64 68 73 83 93 105 108 58
179 186 167 162 165 173 174 181 192 192 179 169 192 279 335 338 322 307 332 352 341 339 341 347 11 17 356 344 353 53 78 51 9 348 48 82 72 75 72 69 71 69 59 33
182 187 185 184 181 185 187 190 196 192 178 178 188 283 315 304 306 329 350 342 326 319 334 6 25 2 332 324 324 302 141 131 245 291 15 73 71 74 87 88 84 79 69 32
193 192 190 190 186 188 189 189 189 183 181 165 146 235 271 291 320 335 332 328 328 332 11 31 23 332 309 331 339 328 258 176 195 170 107 80 64 93 103 109 115 117 130 102
190 189 192 194 188 186 185 183 179 180 182 172 193 233 259 283 293 303 319 331 332 344 8 13 346 312 302 61 7 311 298 227 148 123 116 126 228 166 124 121 128 132 132 122
191 191 192 192 187 184 180 174 170 175 180 181 203 232 250 258 267 302 325 317 320 32 360 349 322 309 338 71 2 304 301 292 165 150 154 175 201 171 149 147 143 144 140 131
195 194 193 192 185 181 180 175 170 177 186 190 209 239 259 280 297 295 293 297 13 56 346 317 302 335 8 10 307 288 289 288 246 172 172 185 188 176 167 166 160 157 150 139
200 196 195 192 184 184 186 189 182 186 195 195 199 222 247 263 276 287 284 248 124 89 333 309 341 18 349 327 281 270 271 278 270 208 184 193 189 183 183 175 170 165 150 141
204 198 197 197 194 194 193 198 195 189 192 200 208 218 229 228 240 278 281 297 77 73 317 299 330 314 313 298 270 256 248 251 251 230 202 203 204 195 186 177 174 166 155 151
238 209 202 201 200 201 199 197 196 190 189 196 210 220 225 217 222 234 245 190 169 189 277 279 276 283 287 273 262 247 237 239 230 226 223 213 217 205 187 175 176 174 166 161
285 248 219 209 209 208 207 198 191 192 194 199 211 218 220 203 199 223 278 299 253 237 265 278 268 268 268 268 269 256 232 225 216 210 215 215 219 218 209 187 180 177 172 170
311 298 280 249 230 205 205 204 198 189 189 198 210 217 214 196 188 192 213 248 260 253 253 262 264 257 263 282 298 293 271 218 195 202 220 224 214 200 209 216 201 184 177 175
305 292 266 258 256 231 219 214 210 204 198 199 205 208 208 203 196 199 211 228 247 251 253 261 272 273 275 278 282 285 282 262 218 199 208 214 214 204 199 203 198 186 175 170